When you browse on this site, cookies collect data to enhance your experience and personalize the content and advertising you see.
Visit our Privacy Policy to learn more. By continuing to use the site, you agree to this use of cookies and data.
  • In Hungary
  • List of Countries
  • For 7 days
  • Water Temperature
  • Weather Map
  • News
  • Weather Widgets
  • user-avatar
    Login

    Hourly Weather Tulata

    Today, 23 August, Friday

    Time Temperature Precipitation Wind Pressure Humidity
    00:00 +12°C° 0 mm 2 mps 704 mmHg 99%
    01:00 +12°C° 2 mm 2 mps 705 mmHg 99%
    02:00 +12°C° 2 mm 2 mps 705 mmHg 99%
    03:00 +12°C° 2 mm 2 mps 705 mmHg 99%
    04:00 +12°C° 2.5 mm 2 mps 706 mmHg 99%
    05:00 +12°C° 2.5 mm 2 mps 707 mmHg 99%
    06:00 +12°C° 0 mm 2 mps 708 mmHg 99%
    07:00 +12°C° 1.3 mm 2 mps 709 mmHg 98%
    08:00 +12°C° 1.3 mm 2 mps 709 mmHg 97%
    09:00 +11°C° 1.3 mm 3 mps 710 mmHg 96%
    10:00 +12°C° 0.6 mm 3 mps 711 mmHg 93%
    11:00 +13°C° 0.6 mm 3 mps 711 mmHg 90%
    12:00 +14°C° 0.6 mm 4 mps 712 mmHg 87%
    13:00 +14°C° 0.6 mm 4 mps 712 mmHg 85%
    14:00 +15°C° 0.6 mm 4 mps 712 mmHg 83%
    15:00 +16°C° 0.6 mm 3 mps 712 mmHg 81%
    16:00 +16°C° 0.5 mm 3 mps 712 mmHg 84%
    17:00 +16°C° 0.5 mm 3 mps 712 mmHg 86%
    18:00 +15°C° 0.5 mm 2 mps 712 mmHg 89%
    19:00 +14°C° 0.5 mm 2 mps 712 mmHg 90%
    20:00 +13°C° 0.5 mm 2 mps 712 mmHg 91%
    21:00 +12°C° 0.5 mm 2 mps 713 mmHg 92%
    22:00 +12°C° 0.4 mm 2 mps 713 mmHg 92%
    23:00 +10°C° 0.4 mm 2 mps 713 mmHg 92%

    Tomorrow, 24 August, Saturday

    Time Temperature Precipitation Wind Pressure Humidity
    00:00 +10°C° 0.4 mm 2 mps 713 mmHg 92%
    01:00 +10°C° 0.2 mm 2 mps 713 mmHg 92%
    02:00 +12°C° 0.2 mm 2 mps 713 mmHg 91%
    03:00 +12°C° 0.2 mm 2 mps 713 mmHg 91%
    04:00 +12°C° 0.1 mm 2 mps 713 mmHg 91%
    05:00 +10°C° 0.1 mm 2 mps 714 mmHg 91%
    06:00 +10°C° 0.1 mm 2 mps 714 mmHg 91%
    07:00 +13°C° 0.1 mm 1 mps 714 mmHg 87%
    08:00 +15°C° 0.1 mm 1 mps 715 mmHg 83%
    09:00 +18°C° 0.1 mm 1 mps 715 mmHg 79%
    10:00 +18°C° 0.4 mm 2 mps 715 mmHg 76%
    11:00 +18°C° 0.4 mm 2 mps 715 mmHg 73%
    12:00 +19°C° 0.4 mm 3 mps 715 mmHg 70%
    13:00 +19°C° 0.4 mm 3 mps 715 mmHg 69%
    14:00 +19°C° 0.4 mm 3 mps 715 mmHg 69%
    15:00 +19°C° 0.4 mm 2 mps 714 mmHg 68%
    16:00 +19°C° 0.1 mm 2 mps 714 mmHg 70%
    17:00 +20°C° 0.1 mm 1 mps 715 mmHg 71%
    18:00 +20°C° 0.1 mm 1 mps 715 mmHg 73%
    19:00 +18°C° 0 mm 1 mps 715 mmHg 75%
    20:00 +15°C° 0 mm 1 mps 715 mmHg 77%
    21:00 +13°C° 0 mm 2 mps 714 mmHg 78%
    22:00 +13°C° 0 mm 2 mps 714 mmHg 79%
    23:00 +12°C° 0 mm 2 mps 714 mmHg 80%

    Day after tomorrow, 25 August, Sunday

    Time Temperature Precipitation Wind Pressure Humidity
    00:00 +10°C° 0 mm 2 mps 714 mmHg 81%
    01:00 +10°C° 0 mm 2 mps 714 mmHg 80%
    02:00 +10°C° 0 mm 2 mps 714 mmHg 80%
    03:00 +10°C° 0 mm 2 mps 714 mmHg 80%
    04:00 +10°C° 0 mm 2 mps 714 mmHg 79%
    05:00 +10°C° 0 mm 2 mps 714 mmHg 78%
    06:00 +10°C° 0 mm 2 mps 714 mmHg 77%
    07:00 +14°C° 0 mm 2 mps 714 mmHg 71%
    08:00 +16°C° 0 mm 1 mps 715 mmHg 66%
    09:00 +20°C° 0 mm 1 mps 715 mmHg 60%
    10:00 +21°C° 0 mm 1 mps 715 mmHg 57%
    11:00 +23°C° 0 mm 1 mps 715 mmHg 55%
    12:00 +24°C° 0 mm 1 mps 715 mmHg 52%
    13:00 +24°C° 0 mm 2 mps 715 mmHg 53%
    14:00 +23°C° 0 mm 2 mps 715 mmHg 55%
    15:00 +23°C° 0 mm 2 mps 714 mmHg 57%
    16:00 +23°C° 0 mm 2 mps 714 mmHg 62%
    17:00 +22°C° 0 mm 1 mps 714 mmHg 67%
    18:00 +19°C° 0 mm 0 mps 714 mmHg 72%
    19:00 +20°C° 0 mm 1 mps 714 mmHg 77%
    20:00 +18°C° 0 mm 1 mps 714 mmHg 81%
    21:00 +15°C° 0 mm 1 mps 714 mmHg 85%
    22:00 +14°C° 0 mm 1 mps 714 mmHg 86%
    23:00 +14°C° 0 mm 1 mps 714 mmHg 86%

    26 August, Monday

    Time Temperature Precipitation Wind Pressure Humidity
    00:00 +13°C° 0 mm 1 mps 714 mmHg 86%
    01:00 +13°C° 0 mm 1 mps 713 mmHg 86%
    02:00 +13°C° 0 mm 1 mps 713 mmHg 87%
    03:00 +13°C° 0 mm 1 mps 713 mmHg 87%
    04:00 +12°C° 0 mm 1 mps 713 mmHg 86%
    05:00 +12°C° 0 mm 1 mps 713 mmHg 86%
    06:00 +12°C° 0 mm 1 mps 713 mmHg 86%
    07:00 +15°C° 0 mm 1 mps 713 mmHg 79%
    08:00 +18°C° 0 mm 1 mps 713 mmHg 72%
    09:00 +21°C° 0 mm 1 mps 713 mmHg 65%
    10:00 +22°C° 0 mm 1 mps 713 mmHg 62%
    11:00 +23°C° 0 mm 1 mps 713 mmHg 59%
    12:00 +25°C° 0 mm 1 mps 713 mmHg 55%
    13:00 +25°C° 0 mm 1 mps 712 mmHg 55%
    14:00 +25°C° 0 mm 1 mps 712 mmHg 55%
    15:00 +25°C° 0 mm 1 mps 712 mmHg 55%
    16:00 +24°C° 0 mm 1 mps 711 mmHg 60%
    17:00 +24°C° 0 mm 1 mps 711 mmHg 66%
    18:00 +23°C° 0 mm 1 mps 711 mmHg 71%
    19:00 +21°C° 0 mm 1 mps 711 mmHg 76%
    20:00 +19°C° 0 mm 1 mps 711 mmHg 82%
    21:00 +16°C° 0 mm 1 mps 710 mmHg 87%
    22:00 +16°C° 0 mm 1 mps 710 mmHg 86%
    23:00 +16°C° 0 mm 1 mps 710 mmHg 85%

    27 August, Tuesday

    Time Temperature Precipitation Wind Pressure Humidity
    00:00 +15°C° 0 mm 1 mps 709 mmHg 84%
    01:00 +15°C° 0 mm 2 mps 709 mmHg 82%
    02:00 +15°C° 0 mm 2 mps 708 mmHg 80%
    03:00 +15°C° 0 mm 2 mps 708 mmHg 78%
    04:00 +15°C° 0 mm 2 mps 708 mmHg 75%
    05:00 +15°C° 0 mm 2 mps 708 mmHg 73%
    06:00 +15°C° 0 mm 2 mps 708 mmHg 71%
    07:00 +18°C° 0 mm 2 mps 708 mmHg 65%
    08:00 +21°C° 0 mm 1 mps 708 mmHg 59%
    09:00 +24°C° 0 mm 1 mps 708 mmHg 54%
    10:00 +26°C° 0 mm 1 mps 708 mmHg 48%
    11:00 +28°C° 0 mm 1 mps 708 mmHg 43%
    12:00 +29°C° 0 mm 1 mps 708 mmHg 37%
    13:00 +29°C° 0 mm 2 mps 707 mmHg 37%
    14:00 +30°C° 0 mm 3 mps 707 mmHg 37%
    15:00 +30°C° 0 mm 3 mps 707 mmHg 38%
    16:00 +29°C° 0 mm 2 mps 706 mmHg 45%
    17:00 +27°C° 0 mm 2 mps 706 mmHg 52%
    18:00 +26°C° 0 mm 1 mps 705 mmHg 59%
    19:00 +24°C° 0 mm 1 mps 705 mmHg 60%
    20:00 +21°C° 0 mm 2 mps 705 mmHg 61%
    21:00 +19°C° 0 mm 2 mps 705 mmHg 63%
    22:00 +18°C° 0 mm 3 mps 705 mmHg 69%
    23:00 +17°C° 0 mm 3 mps 705 mmHg 75%

    28 August, Wednesday

    Time Temperature Precipitation Wind Pressure Humidity
    00:00 +15°C° 0 mm 4 mps 705 mmHg 80%
    01:00 +16°C° 0 mm 3 mps 706 mmHg 82%
    02:00 +15°C° 0 mm 2 mps 707 mmHg 84%
    03:00 +15°C° 0 mm 1 mps 708 mmHg 86%
    04:00 +15°C° 1.8 mm 2 mps 708 mmHg 89%
    05:00 +15°C° 1.8 mm 2 mps 709 mmHg 93%
    06:00 +14°C° 1.8 mm 2 mps 710 mmHg 96%
    07:00 +14°C° 0.7 mm 3 mps 710 mmHg 94%
    08:00 +14°C° 0.7 mm 4 mps 711 mmHg 91%
    09:00 +15°C° 0.7 mm 4 mps 712 mmHg 89%
    10:00 +17°C° 0.1 mm 4 mps 712 mmHg 81%
    11:00 +18°C° 0.1 mm 4 mps 713 mmHg 72%
    12:00 +19°C° 0.1 mm 4 mps 713 mmHg 64%
    13:00 +19°C° 0 mm 4 mps 713 mmHg 64%
    14:00 +19°C° 0 mm 4 mps 713 mmHg 63%
    15:00 +19°C° 0 mm 4 mps 713 mmHg 62%
    16:00 +18°C° 0 mm 3 mps 713 mmHg 66%
    17:00 +17°C° 0 mm 2 mps 713 mmHg 70%
    18:00 +18°C° 0 mm 1 mps 713 mmHg 74%
    19:00 +15°C° 0 mm 1 mps 713 mmHg 80%
    20:00 +13°C° 0 mm 1 mps 713 mmHg 85%
    21:00 +11°C° 0 mm 1 mps 713 mmHg 91%
    22:00 +11°C° 0 mm 1 mps 713 mmHg 91%
    23:00 +10°C° 0 mm 1 mps 712 mmHg 92%
    Show more